Temp
51 51 52 52 51 51 50 50 51 51 50 49 48 48 47 47 47 47 47 46 46 46 46 45 45 43 41 40 41 41 42 42 42 43 44 45 44 43 42 42 41 41 40 41 41 40 40 40 40 40 40 40 40 39 39 39 38 38 39 38 38 38 37 36 36 36 36 36 37
51 51 52 54 54 52 51 50 50 51 50 49 48 47 47 47 47 47 47 46 46 46 45 45 43 41 40 40 41 41 41 42 42 42 43 44 43 43 42 42 41 41 40 40 40 40 41 40 40 40 40 40 39 39 39 38 38 38 37 37 38 38 37 36 36 36 36 36 37
51 51 51 51 51 51 50 50 50 49 49 49 47 47 47 46 47 47 47 46 45 44 43 43 41 40 40 39 40 41 41 41 41 41 42 43 43 42 42 42 41 41 41 40 40 40 41 40 40 40 40 39 39 38 38 38 38 37 37 36 37 37 37 37 36 36 36 36 36
49 49 50 49 49 50 50 51 50 49 48 48 46 45 46 47 47 47 46 44 42 42 42 43 41 41 40 40 40 40 41 42 41 41 41 42 42 42 41 41 41 40 40 40 40 40 40 40 40 40 40 39 38 38 38 38 38 37 37 37 37 37 37 37 36 36 36 37 36
48 49 50 51 50 50 50 51 50 49 48 46 45 45 46 47 47 46 44 43 44 44 43 41 41 41 41 40 39 39 40 41 42 42 41 41 41 41 41 40 40 40 40 40 39 39 39 39 40 40 40 39 38 38 38 37 37 37 37 37 37 37 37 36 36 36 36 37 37
47 48 49 50 49 49 50 50 49 48 47 45 45 46 46 47 46 45 45 46 46 44 41 40 42 42 41 39 38 39 39 40 41 41 41 41 41 40 40 40 40 40 40 40 39 39 39 39 40 40 39 39 38 37 37 36 36 36 36 36 37 37 36 36 36 36 36 36 36
47 47 48 48 47 48 48 48 48 46 45 44 44 45 46 47 46 45 45 46 45 43 42 44 44 44 42 39 39 39 39 40 40 40 40 40 40 40 40 40 40 40 40 40 39 39 39 38 39 39 40 40 39 37 36 36 36 35 35 35 36 36 36 35 35 36 35 35 35
44 44 45 45 45 45 45 44 45 45 45 45 46 46 45 45 44 44 44 44 43 43 44 45 43 42 41 40 40 40 40 39 40 40 40 41 40 40 40 40 40 40 40 40 40 39 39 39 39 39 39 39 38 37 36 34 34 34 34 34 35 36 35 34 34 34 34 34 34
43 43 43 43 42 42 42 42 42 43 44 46 46 46 45 44 43 43 43 43 45 45 44 45 43 41 40 40 40 40 40 40 39 40 40 41 40 40 40 40 39 40 40 40 40 39 38 39 39 39 39 38 38 37 35 34 33 33 33 34 35 35 35 34 34 33 33 33 32
43 44 43 43 42 42 41 40 40 40 41 43 43 44 44 46 45 44 44 46 45 44 43 44 42 41 40 40 41 41 41 40 40 40 40 40 40 40 39 39 39 39 40 40 40 39 38 38 38 38 38 38 37 36 35 34 33 33 33 35 34 34 33 34 34 33 33 33 31
43 43 43 43 42 42 41 40 40 40 40 42 42 42 43 44 44 44 44 44 43 43 43 44 42 41 41 41 41 42 42 42 42 41 40 40 40 39 38 38 38 38 39 39 39 39 38 38 38 37 37 37 36 35 34 33 33 32 32 33 33 33 33 33 33 33 33 32 31
42 42 42 42 41 40 40 40 40 41 41 41 42 42 42 42 42 42 42 41 41 42 43 43 42 42 42 42 42 43 43 43 42 41 40 39 39 38 38 37 37 37 38 39 39 39 38 37 37 36 36 36 36 35 34 33 32 32 32 32 32 32 32 32 32 32 32 32 31
42 41 41 41 40 39 39 39 39 40 40 41 42 43 43 43 42 41 40 40 42 43 44 43 42 42 42 43 43 44 44 43 42 41 41 40 39 38 37 36 36 36 37 38 38 38 38 37 36 35 35 35 35 35 34 33 32 32 31 31 31 31 31 31 31 31 31 31 31
41 40 40 40 39 38 38 38 39 39 39 40 41 42 43 43 42 41 41 41 42 43 44 43 43 44 44 44 43 43 43 43 42 41 40 40 39 38 37 36 36 36 36 37 37 37 37 36 36 35 34 34 34 34 34 34 33 32 31 31 31 31 31 31 31 30 30 30 30
40 39 39 38 38 38 38 38 38 39 39 40 41 42 42 43 43 43 43 42 42 43 43 43 45 45 45 44 43 42 42 42 41 40 40 39 39 38 37 36 35 35 35 36 36 36 36 36 35 35 34 34 33 33 34 34 33 32 32 31 31 31 31 30 30 30 30 29 30
40 39 38 38 38 38 38 38 39 39 39 41 42 42 42 43 43 43 43 42 43 43 44 43 44 44 44 44 43 42 42 41 41 40 40 39 38 38 37 36 35 34 34 35 35 35 35 35 35 35 35 34 33 33 33 33 33 32 32 31 31 31 31 31 30 30 30 30 30
40 39 39 38 38 38 38 38 39 40 40 42 41 41 42 43 43 43 44 44 44 44 44 43 44 44 43 43 43 43 42 41 41 40 40 39 38 37 36 35 35 34 34 34 34 34 34 34 34 35 35 34 33 33 33 33 32 32 32 31 31 31 31 31 31 30 30 30 30
40 39 39 39 38 38 38 38 39 39 40 41 41 42 42 43 43 43 44 45 44 43 43 43 43 43 42 42 42 42 42 41 41 40 40 39 38 37 36 35 35 34 34 33 33 33 33 33 34 34 34 34 33 33 33 33 32 32 32 31 31 31 31 31 31 30 30 30 30
40 39 39 38 38 38 38 39 39 40 40 40 41 42 42 42 42 42 43 43 43 43 42 42 42 42 41 41 40 41 42 41 40 39 39 39 38 37 36 35 34 34 33 33 33 33 33 33 33 33 34 34 33 33 33 32 32 32 31 31 31 30 30 30 30 30 30 30 30
39 39 39 39 38 38 39 39 39 39 40 41 41 41 42 42 42 42 42 43 43 43 42 41 41 41 41 40 40 40 40 41 39 39 38 38 37 36 36 35 34 34 33 32 32 32 32 33 33 33 33 33 33 33 32 32 32 31 31 31 30 30 30 30 30 30 31 31 31
39 39 39 39 38 39 39 39 39 39 39 40 40 41 41 42 41 41 42 43 43 42 41 41 40 40 40 40 39 39 39 40 39 38 38 37 36 36 36 35 34 34 33 32 32 32 32 33 33 33 33 33 33 32 32 32 31 31 31 31 30 30 31 31 31 31 31 31 31
39 39 39 39 39 39 39 39 39 39 40 40 41 41 41 41 41 42 42 42 42 41 41 41 40 40 39 39 39 38 38 40 39 38 38 37 36 36 35 35 34 34 33 33 32 32 32 33 33 33 32 32 32 32 32 32 31 31 31 31 31 31 31 31 31 31 31 31 31
39 39 38 39 39 40 40 40 40 40 40 40 41 41 41 41 42 42 41 41 41 41 41 41 41 40 39 39 38 38 37 38 38 38 38 37 36 35 34 34 34 33 33 33 33 32 32 32 32 32 32 32 32 32 32 32 32 31 31 31 31 31 31 31 31 31 31 32 32
39 39 40 41 39 39 39 39 39 40 40 40 41 41 41 41 42 41 41 40 40 40 40 41 41 40 39 38 37 36 36 36 36 36 36 36 36 35 34 33 33 33 33 33 33 33 33 32 32 31 31 31 31 32 32 32 31 31 31 31 30 31 31 31 31 31 31 31 31
39 39 39 40 39 39 39 39 39 40 40 41 41 41 41 41 41 41 40 40 39 39 39 39 39 38 38 37 36 36 35 35 35 35 35 36 36 35 35 34 33 33 33 34 37 38 38 37 35 33 32 32 32 32 31 31 31 31 31 30 30 31 31 31 31 31 31 31 31
40 40 39 39 39 39 39 39 39 40 40 41 41 41 41 41 41 40 40 39 39 39 38 38 38 38 38 37 36 35 35 35 35 35 35 35 35 35 35 35 34 33 33 35 38 41 41 42 40 38 35 32 32 31 31 31 31 31 30 30 31 31 30 30 30 30 30 31 30
41 40 40 40 39 39 39 39 40 40 40 40 40 41 41 42 42 41 40 39 39 39 38 37 37 38 39 38 36 35 35 36 36 35 35 34 34 34 35 35 35 33 34 37 40 41 42 43 43 42 39 34 32 31 31 31 30 30 30 30 31 31 30 30 30 30 30 30 30
41 41 41 40 39 39 39 40 40 40 40 41 41 42 42 42 41 40 40 40 39 38 37 37 37 38 38 37 36 35 35 35 35 35 35 34 34 34 35 35 35 35 36 39 41 42 43 43 44 43 42 39 34 31 30 30 30 30 30 30 30 30 30 30 30 30 30 30 30
40 40 40 39 39 40 40 40 40 41 41 42 42 42 42 41 41 40 40 39 38 38 38 39 39 38 36 36 36 36 35 34 35 35 35 34 34 34 35 35 35 36 39 42 42 43 43 43 43 44 43 42 38 34 31 30 30 31 31 31 31 31 31 31 31 31 31 31 31
40 40 40 40 40 40 40 40 41 41 42 43 42 42 41 41 41 40 40 39 39 39 39 39 38 37 36 37 36 36 36 35 35 35 34 34 34 34 35 36 35 36 38 42 43 43 43 43 43 44 44 44 40 37 33 31 31 31 31 32 31 31 31 31 31 31 31 31 31
40 40 40 40 40 40 40 41 41 42 42 42 42 41 41 41 40 40 40 39 40 41 40 38 37 36 36 37 36 36 36 35 35 34 34 33 34 35 35 35 35 36 38 41 43 43 44 44 44 44 44 44 42 39 36 33 32 31 31 32 32 31 31 31 31 31 31 31 31
40 40 40 39 40 40 41 41 41 41 41 41 41 41 41 41 41 40 40 40 40 40 39 37 37 37 36 36 36 36 35 35 35 34 34 34 34 34 35 35 34 35 37 41 42 43 43 44 44 44 44 44 42 39 36 35 33 32 31 31 31 31 31 31 31 31 31 31 31
39 39 39 39 40 40 41 41 41 41 41 41 41 41 41 41 40 40 40 39 39 38 38 38 38 37 37 37 36 36 36 36 35 35 36 36 35 34 34 35 34 36 38 41 42 43 43 44 44 44 44 44 42 39 37 36 35 33 32 31 31 31 31 31 31 31 31 31 31
39 39 39 39 40 40 41 41 41 41 41 41 41 41 40 40 40 40 40 40 40 40 39 38 38 38 38 38 38 37 37 38 37 36 35 35 35 34 34 34 35 37 40 41 42 43 43 43 43 44 44 44 41 39 38 37 36 34 33 32 31 31 31 30 31 31 31 31 31
38 39 39 40 40 40 41 41 41 41 41 41 41 41 40 40 39 40 40 42 42 41 40 39 39 39 39 38 38 37 37 38 37 36 36 35 35 34 34 34 34 37 40 42 42 43 43 43 43 43 43 43 40 38 37 37 36 35 34 33 32 31 30 30 30 31 31 31 31
39 39 40 40 41 41 41 41 42 42 41 41 41 41 41 40 40 40 40 42 42 40 39 39 38 37 37 38 38 38 38 37 37 37 36 36 35 34 33 34 34 36 39 41 42 43 43 43 43 43 43 41 38 37 37 36 36 36 35 33 32 31 31 30 30 30 31 31 31
40 40 40 41 41 42 42 42 42 42 42 42 42 41 41 41 40 40 40 41 40 39 38 38 38 38 38 38 38 39 39 38 38 37 37 37 36 35 34 34 33 35 38 41 42 42 43 43 43 43 42 40 38 36 36 36 36 36 35 34 33 32 31 31 31 30 30 30 31
42 42 42 42 42 42 43 43 43 43 42 42 42 41 41 40 40 40 40 41 40 40 39 39 39 39 39 39 39 39 38 38 38 38 38 37 37 36 35 34 33 34 36 40 41 42 42 43 43 43 42 39 37 36 36 35 35 35 35 35 34 33 33 32 32 31 30 30 32
44 43 43 43 43 43 43 43 43 43 42 42 42 42 41 40 40 40 41 41 41 41 40 40 40 40 40 40 40 40 38 38 38 38 38 37 37 37 37 36 34 34 36 39 40 41 42 42 43 43 42 39 37 36 36 35 34 34 34 34 34 34 33 33 32 32 31 30 33
45 44 43 43 43 43 43 43 43 43 43 42 42 41 41 41 42 43 43 43 42 42 41 41 40 40 41 42 41 40 39 38 37 37 38 38 38 39 40 38 36 35 36 39 40 41 42 42 42 42 42 39 38 36 36 35 34 34 34 34 34 34 33 33 32 32 31 30 33
45 44 44 43 43 43 43 42 42 42 42 42 41 41 42 42 43 43 43 43 42 42 43 42 41 41 41 42 41 40 39 38 37 37 37 38 38 39 40 39 37 35 35 37 40 41 42 42 42 42 42 39 38 36 36 35 34 33 33 33 34 34 33 33 32 32 31 31 31
MSLP
1015.27 1015.27 1015.31 1015.39 1015.43 1015.47 1015.47 1015.43 1015.35 1015.35 1015.35 1015.39 1015.39 1015.39 1015.43 1015.47 1015.47 1015.39 1015.31 1015.35 1015.35 1015.31 1015.27 1015.23 1015.27 1015.31 1015.43 1015.55 1015.67 1015.71 1015.75 1015.79 1015.83 1015.83 1015.83 1015.83 1015.83 1015.83 1015.95 1016.03 1016.11 1016.27 1016.39 1016.47 1016.55 1016.71 1016.87 1016.99 1017.15 1017.19 1017.23 1017.23 1017.27 1017.27 1017.27 1017.27 1017.39 1017.43 1017.43 1017.47 1017.55 1017.59 1017.75 1017.83 1017.87 1017.91 1017.99 1018.03 1018.03
1015.11 1015.11 1015.11 1015.15 1015.15 1015.19 1015.23 1015.19 1015.15 1015.15 1015.11 1015.11 1015.07 1015.11 1015.15 1015.19 1015.19 1015.11 1015.03 1015.07 1014.99 1014.99 1014.95 1014.99 1014.99 1015.07 1015.15 1015.23 1015.27 1015.39 1015.43 1015.51 1015.55 1015.55 1015.55 1015.55 1015.51 1015.55 1015.67 1015.79 1015.87 1015.99 1016.07 1016.23 1016.31 1016.43 1016.55 1016.71 1016.87 1016.95 1016.95 1016.95 1016.99 1016.95 1016.95 1016.95 1017.11 1017.19 1017.19 1017.15 1017.19 1017.31 1017.43 1017.51 1017.47 1017.55 1017.67 1017.75 1017.83
1014.95 1014.95 1014.95 1014.99 1014.99 1015.07 1015.11 1015.07 1014.99 1014.91 1014.87 1014.83 1014.83 1014.87 1014.91 1014.95 1014.95 1014.87 1014.79 1014.71 1014.71 1014.75 1014.83 1014.79 1014.79 1014.83 1014.87 1014.91 1014.99 1015.03 1015.11 1015.15 1015.23 1015.27 1015.27 1015.23 1015.27 1015.27 1015.39 1015.47 1015.55 1015.67 1015.79 1015.87 1015.99 1016.11 1016.23 1016.39 1016.51 1016.59 1016.63 1016.59 1016.63 1016.59 1016.55 1016.59 1016.79 1016.87 1016.91 1016.87 1016.91 1017.03 1017.15 1017.15 1017.15 1017.27 1017.43 1017.51 1017.55
1014.83 1014.83 1014.83 1014.87 1014.83 1014.83 1014.83 1014.75 1014.71 1014.71 1014.67 1014.63 1014.63 1014.71 1014.71 1014.71 1014.67 1014.59 1014.55 1014.55 1014.55 1014.59 1014.55 1014.55 1014.55 1014.55 1014.59 1014.67 1014.71 1014.71 1014.75 1014.79 1014.87 1014.95 1014.99 1014.95 1014.99 1014.99 1015.07 1015.15 1015.27 1015.35 1015.43 1015.55 1015.71 1015.79 1015.87 1016.03 1016.15 1016.19 1016.19 1016.19 1016.27 1016.27 1016.23 1016.27 1016.43 1016.55 1016.55 1016.55 1016.67 1016.75 1016.79 1016.75 1016.83 1016.99 1017.15 1017.23 1017.27
1014.71 1014.67 1014.63 1014.59 1014.59 1014.55 1014.51 1014.43 1014.43 1014.43 1014.39 1014.39 1014.47 1014.55 1014.51 1014.47 1014.43 1014.43 1014.43 1014.43 1014.35 1014.27 1014.23 1014.23 1014.27 1014.27 1014.31 1014.39 1014.43 1014.47 1014.51 1014.51 1014.55 1014.63 1014.67 1014.67 1014.63 1014.71 1014.79 1014.83 1014.91 1014.99 1015.11 1015.27 1015.35 1015.47 1015.59 1015.71 1015.83 1015.83 1015.83 1015.83 1015.83 1015.83 1015.83 1015.99 1016.11 1016.23 1016.27 1016.27 1016.35 1016.43 1016.43 1016.47 1016.55 1016.67 1016.83 1016.91 1016.95
1014.55 1014.47 1014.39 1014.35 1014.31 1014.31 1014.27 1014.23 1014.23 1014.19 1014.15 1014.19 1014.31 1014.35 1014.27 1014.23 1014.23 1014.23 1014.23 1014.11 1013.99 1013.95 1013.99 1014.07 1014.07 1014.07 1014.11 1014.15 1014.23 1014.27 1014.27 1014.27 1014.27 1014.31 1014.31 1014.31 1014.35 1014.39 1014.47 1014.55 1014.55 1014.63 1014.71 1014.83 1014.99 1015.11 1015.27 1015.47 1015.55 1015.55 1015.47 1015.47 1015.47 1015.43 1015.47 1015.67 1015.83 1015.91 1015.99 1015.99 1015.99 1016.03 1016.11 1016.19 1016.27 1016.39 1016.51 1016.55 1016.63
1014.43 1014.35 1014.27 1014.19 1014.15 1014.15 1014.11 1014.03 1013.99 1013.99 1013.99 1014.07 1014.15 1014.15 1014.03 1013.95 1013.95 1013.91 1013.87 1013.79 1013.75 1013.79 1013.83 1013.83 1013.83 1013.83 1013.83 1013.95 1013.99 1013.99 1014.03 1014.03 1014.03 1014.03 1014.03 1014.07 1014.07 1014.11 1014.19 1014.23 1014.27 1014.35 1014.43 1014.51 1014.67 1014.83 1014.99 1015.15 1015.23 1015.19 1015.15 1015.15 1015.15 1015.15 1015.23 1015.43 1015.55 1015.63 1015.71 1015.71 1015.67 1015.71 1015.83 1015.87 1015.95 1016.07 1016.19 1016.27 1016.31
1014.39 1014.31 1014.23 1014.15 1014.11 1014.11 1014.03 1013.99 1013.91 1013.87 1013.91 1013.95 1013.95 1013.87 1013.75 1013.71 1013.71 1013.67 1013.63 1013.63 1013.63 1013.59 1013.55 1013.55 1013.55 1013.59 1013.63 1013.67 1013.71 1013.71 1013.75 1013.75 1013.75 1013.75 1013.79 1013.79 1013.83 1013.83 1013.87 1013.91 1013.99 1014.03 1014.11 1014.15 1014.31 1014.47 1014.63 1014.79 1014.83 1014.83 1014.79 1014.83 1014.83 1014.83 1014.91 1015.15 1015.27 1015.27 1015.27 1015.31 1015.35 1015.43 1015.47 1015.55 1015.67 1015.79 1015.87 1015.95 1016.03
1014.35 1014.27 1014.15 1014.11 1014.03 1013.99 1013.95 1013.87 1013.83 1013.83 1013.83 1013.79 1013.67 1013.55 1013.51 1013.47 1013.47 1013.47 1013.47 1013.43 1013.35 1013.27 1013.27 1013.27 1013.27 1013.35 1013.43 1013.43 1013.43 1013.43 1013.43 1013.47 1013.47 1013.47 1013.47 1013.51 1013.55 1013.55 1013.59 1013.67 1013.71 1013.75 1013.79 1013.87 1013.99 1014.15 1014.31 1014.43 1014.47 1014.43 1014.39 1014.43 1014.43 1014.51 1014.63 1014.83 1014.99 1014.99 1014.99 1014.99 1015.03 1015.11 1015.19 1015.27 1015.39 1015.47 1015.55 1015.67 1015.75
1014.31 1014.19 1014.11 1014.03 1013.91 1013.83 1013.83 1013.75 1013.71 1013.71 1013.71 1013.59 1013.47 1013.39 1013.31 1013.27 1013.27 1013.23 1013.15 1013.11 1012.99 1012.99 1013.03 1012.99 1012.99 1013.11 1013.15 1013.19 1013.15 1013.15 1013.15 1013.15 1013.19 1013.23 1013.23 1013.27 1013.27 1013.27 1013.27 1013.35 1013.43 1013.43 1013.43 1013.55 1013.67 1013.83 1013.99 1014.11 1014.07 1013.99 1013.95 1013.99 1014.07 1014.19 1014.35 1014.55 1014.63 1014.67 1014.63 1014.67 1014.71 1014.83 1014.87 1014.95 1015.03 1015.15 1015.27 1015.35 1015.43
1014.23 1014.11 1013.99 1013.95 1013.83 1013.71 1013.71 1013.67 1013.59 1013.55 1013.47 1013.43 1013.27 1013.19 1013.15 1013.03 1012.95 1012.87 1012.79 1012.75 1012.83 1012.79 1012.71 1012.63 1012.71 1012.83 1012.87 1012.87 1012.83 1012.83 1012.83 1012.83 1012.87 1012.95 1012.95 1012.95 1012.95 1012.95 1012.95 1012.99 1013.03 1013.07 1013.07 1013.15 1013.27 1013.47 1013.63 1013.71 1013.67 1013.55 1013.51 1013.55 1013.67 1013.83 1013.99 1014.15 1014.27 1014.35 1014.35 1014.35 1014.43 1014.51 1014.59 1014.63 1014.71 1014.83 1014.95 1014.99 1015.15
1014.11 1013.99 1013.83 1013.79 1013.71 1013.63 1013.55 1013.55 1013.43 1013.35 1013.27 1013.19 1013.07 1012.99 1012.87 1012.79 1012.71 1012.63 1012.59 1012.63 1012.67 1012.51 1012.35 1012.31 1012.43 1012.47 1012.51 1012.47 1012.43 1012.43 1012.47 1012.51 1012.55 1012.59 1012.63 1012.63 1012.59 1012.59 1012.63 1012.67 1012.67 1012.71 1012.75 1012.79 1012.91 1013.11 1013.23 1013.23 1013.19 1013.19 1013.23 1013.23 1013.31 1013.43 1013.55 1013.75 1013.91 1014.03 1014.07 1014.07 1014.15 1014.23 1014.27 1014.27 1014.35 1014.47 1014.63 1014.71 1014.83
1013.99 1013.87 1013.75 1013.63 1013.55 1013.55 1013.51 1013.43 1013.31 1013.23 1013.15 1013.03 1012.87 1012.75 1012.67 1012.55 1012.47 1012.43 1012.47 1012.47 1012.39 1012.19 1012.07 1012.03 1012.11 1012.15 1012.15 1012.11 1012.07 1012.07 1012.11 1012.15 1012.19 1012.27 1012.27 1012.27 1012.27 1012.27 1012.35 1012.39 1012.39 1012.43 1012.43 1012.51 1012.63 1012.71 1012.79 1012.79 1012.83 1012.87 1012.99 1013.03 1013.07 1013.15 1013.19 1013.35 1013.51 1013.59 1013.71 1013.79 1013.87 1013.91 1013.91 1013.95 1014.03 1014.19 1014.31 1014.43 1014.51
1013.87 1013.83 1013.71 1013.59 1013.51 1013.51 1013.47 1013.35 1013.23 1013.15 1012.99 1012.91 1012.71 1012.55 1012.43 1012.35 1012.27 1012.27 1012.27 1012.23 1012.11 1011.95 1011.83 1011.83 1011.83 1011.79 1011.75 1011.71 1011.71 1011.71 1011.71 1011.75 1011.83 1011.87 1011.91 1011.91 1011.91 1011.95 1011.99 1012.03 1012.07 1012.11 1012.23 1012.31 1012.39 1012.43 1012.43 1012.43 1012.43 1012.55 1012.71 1012.83 1012.87 1012.87 1012.95 1013.03 1013.11 1013.15 1013.27 1013.43 1013.51 1013.51 1013.55 1013.63 1013.79 1013.95 1014.07 1014.11 1014.15
1013.83 1013.71 1013.63 1013.55 1013.51 1013.43 1013.35 1013.27 1013.15 1012.99 1012.91 1012.75 1012.55 1012.43 1012.27 1012.15 1012.03 1011.99 1011.99 1011.91 1011.83 1011.71 1011.63 1011.59 1011.51 1011.43 1011.31 1011.31 1011.31 1011.35 1011.35 1011.43 1011.47 1011.51 1011.51 1011.51 1011.51 1011.55 1011.63 1011.71 1011.75 1011.83 1011.91 1011.99 1012.11 1012.11 1012.11 1012.07 1012.07 1012.19 1012.35 1012.47 1012.59 1012.71 1012.75 1012.79 1012.79 1012.75 1012.83 1012.95 1013.03 1013.15 1013.23 1013.35 1013.51 1013.67 1013.75 1013.79 1013.83
1013.75 1013.67 1013.55 1013.51 1013.43 1013.31 1013.23 1013.15 1012.99 1012.83 1012.75 1012.55 1012.35 1012.23 1012.11 1011.99 1011.83 1011.75 1011.71 1011.67 1011.55 1011.47 1011.39 1011.31 1011.19 1011.11 1010.99 1010.99 1010.99 1010.99 1011.07 1011.07 1011.11 1011.15 1011.15 1011.15 1011.15 1011.15 1011.23 1011.27 1011.39 1011.43 1011.55 1011.67 1011.75 1011.75 1011.75 1011.71 1011.75 1011.83 1011.95 1012.07 1012.19 1012.35 1012.47 1012.51 1012.51 1012.47 1012.43 1012.51 1012.63 1012.79 1012.91 1013.03 1013.23 1013.35 1013.43 1013.43 1013.55
1013.67 1013.55 1013.43 1013.39 1013.27 1013.19 1013.07 1012.95 1012.83 1012.71 1012.55 1012.39 1012.19 1012.07 1011.99 1011.83 1011.67 1011.55 1011.47 1011.39 1011.27 1011.19 1011.11 1010.99 1010.83 1010.79 1010.71 1010.67 1010.67 1010.71 1010.75 1010.75 1010.75 1010.75 1010.75 1010.71 1010.71 1010.75 1010.83 1010.87 1010.95 1011.03 1011.15 1011.31 1011.43 1011.43 1011.43 1011.43 1011.43 1011.55 1011.63 1011.71 1011.83 1011.99 1012.11 1012.15 1012.23 1012.23 1012.19 1012.23 1012.31 1012.47 1012.59 1012.71 1012.91 1012.99 1013.11 1013.15 1013.23
1013.55 1013.43 1013.31 1013.27 1013.15 1013.03 1012.91 1012.79 1012.67 1012.55 1012.39 1012.23 1012.03 1011.91 1011.75 1011.63 1011.51 1011.39 1011.23 1011.11 1011.03 1010.95 1010.83 1010.67 1010.55 1010.51 1010.47 1010.43 1010.39 1010.39 1010.43 1010.39 1010.35 1010.31 1010.27 1010.27 1010.31 1010.35 1010.43 1010.47 1010.55 1010.67 1010.83 1010.95 1010.99 1010.99 1010.99 1011.03 1011.15 1011.27 1011.35 1011.43 1011.55 1011.67 1011.79 1011.83 1011.95 1011.95 1011.95 1011.99 1012.07 1012.15 1012.27 1012.43 1012.55 1012.71 1012.79 1012.87 1012.91
1013.43 1013.31 1013.23 1013.15 1012.99 1012.87 1012.71 1012.59 1012.43 1012.31 1012.15 1011.99 1011.83 1011.71 1011.55 1011.39 1011.27 1011.19 1011.03 1010.87 1010.75 1010.71 1010.55 1010.43 1010.35 1010.27 1010.23 1010.15 1010.11 1010.11 1010.07 1010.07 1009.99 1009.95 1009.87 1009.87 1009.95 1009.99 1010.07 1010.11 1010.23 1010.35 1010.51 1010.55 1010.59 1010.55 1010.59 1010.71 1010.83 1010.95 1011.07 1011.15 1011.27 1011.39 1011.47 1011.55 1011.63 1011.67 1011.71 1011.75 1011.83 1011.91 1011.99 1012.11 1012.23 1012.35 1012.43 1012.51 1012.55
1013.35 1013.23 1013.11 1012.99 1012.83 1012.71 1012.55 1012.43 1012.27 1012.11 1011.95 1011.83 1011.67 1011.51 1011.35 1011.15 1011.07 1010.99 1010.83 1010.59 1010.43 1010.35 1010.31 1010.23 1010.11 1010.03 1009.91 1009.87 1009.83 1009.83 1009.75 1009.71 1009.71 1009.67 1009.59 1009.59 1009.71 1009.71 1009.75 1009.83 1009.95 1010.03 1010.15 1010.23 1010.19 1010.23 1010.27 1010.39 1010.51 1010.63 1010.71 1010.83 1010.95 1011.03 1011.15 1011.27 1011.35 1011.43 1011.47 1011.55 1011.59 1011.63 1011.71 1011.83 1011.95 1012.03 1012.11 1012.19 1012.27
1013.19 1013.07 1012.95 1012.79 1012.67 1012.55 1012.39 1012.19 1012.03 1011.91 1011.79 1011.59 1011.47 1011.31 1011.15 1010.95 1010.83 1010.71 1010.55 1010.31 1010.15 1010.11 1010.07 1009.99 1009.91 1009.79 1009.71 1009.63 1009.63 1009.55 1009.47 1009.43 1009.43 1009.43 1009.39 1009.39 1009.43 1009.43 1009.43 1009.55 1009.63 1009.71 1009.79 1009.83 1009.83 1009.91 1009.99 1010.11 1010.23 1010.31 1010.43 1010.55 1010.59 1010.67 1010.75 1010.83 1010.99 1011.11 1011.19 1011.27 1011.31 1011.35 1011.43 1011.51 1011.63 1011.71 1011.83 1011.87 1011.99
1013.03 1012.87 1012.75 1012.63 1012.51 1012.35 1012.15 1011.99 1011.83 1011.71 1011.55 1011.39 1011.23 1011.03 1010.87 1010.71 1010.59 1010.43 1010.23 1010.07 1009.99 1009.91 1009.83 1009.71 1009.59 1009.55 1009.43 1009.35 1009.31 1009.27 1009.15 1009.11 1009.15 1009.15 1009.11 1009.15 1009.15 1009.15 1009.15 1009.27 1009.39 1009.43 1009.47 1009.51 1009.55 1009.63 1009.75 1009.83 1009.95 1010.03 1010.11 1010.19 1010.23 1010.27 1010.39 1010.51 1010.59 1010.71 1010.83 1010.95 1010.99 1011.03 1011.15 1011.23 1011.31 1011.39 1011.47 1011.55 1011.67
1012.83 1012.71 1012.59 1012.47 1012.35 1012.19 1011.99 1011.83 1011.67 1011.55 1011.39 1011.19 1010.99 1010.79 1010.63 1010.47 1010.27 1010.11 1009.95 1009.83 1009.75 1009.63 1009.51 1009.43 1009.27 1009.19 1009.11 1009.03 1008.99 1008.99 1008.95 1008.91 1008.87 1008.83 1008.83 1008.83 1008.83 1008.87 1008.95 1009.03 1009.15 1009.15 1009.15 1009.15 1009.27 1009.39 1009.51 1009.59 1009.71 1009.75 1009.83 1009.87 1009.91 1009.95 1009.99 1010.11 1010.23 1010.35 1010.43 1010.55 1010.67 1010.75 1010.83 1010.91 1010.95 1011.03 1011.15 1011.27 1011.35
1012.71 1012.59 1012.43 1012.27 1012.15 1011.99 1011.83 1011.67 1011.47 1011.31 1011.15 1010.95 1010.75 1010.55 1010.39 1010.19 1009.99 1009.83 1009.71 1009.59 1009.47 1009.39 1009.27 1009.11 1008.95 1008.83 1008.79 1008.75 1008.75 1008.75 1008.75 1008.71 1008.67 1008.59 1008.55 1008.55 1008.55 1008.59 1008.67 1008.75 1008.83 1008.79 1008.79 1008.83 1008.91 1009.07 1009.23 1009.31 1009.39 1009.43 1009.47 1009.55 1009.55 1009.59 1009.63 1009.75 1009.83 1009.91 1010.03 1010.19 1010.31 1010.43 1010.51 1010.55 1010.63 1010.71 1010.83 1010.95 1011.07
1012.55 1012.43 1012.27 1012.11 1011.99 1011.83 1011.67 1011.47 1011.27 1011.11 1010.87 1010.67 1010.47 1010.27 1010.11 1009.91 1009.71 1009.59 1009.43 1009.31 1009.15 1009.07 1008.95 1008.83 1008.71 1008.59 1008.55 1008.51 1008.51 1008.55 1008.55 1008.51 1008.43 1008.39 1008.35 1008.31 1008.27 1008.31 1008.39 1008.43 1008.47 1008.47 1008.47 1008.51 1008.51 1008.55 1008.71 1008.83 1008.95 1009.03 1009.11 1009.15 1009.23 1009.27 1009.35 1009.43 1009.43 1009.55 1009.71 1009.83 1009.95 1010.03 1010.11 1010.15 1010.27 1010.35 1010.47 1010.55 1010.71
1012.35 1012.27 1012.11 1011.95 1011.83 1011.67 1011.47 1011.27 1011.07 1010.83 1010.59 1010.39 1010.19 1009.99 1009.83 1009.63 1009.47 1009.35 1009.23 1009.03 1008.87 1008.75 1008.63 1008.55 1008.43 1008.39 1008.31 1008.27 1008.27 1008.23 1008.23 1008.23 1008.15 1008.11 1008.07 1007.99 1007.99 1007.99 1008.03 1008.07 1008.11 1008.11 1008.15 1008.15 1008.11 1008.11 1008.15 1008.23 1008.35 1008.51 1008.67 1008.79 1008.87 1008.95 1008.99 1009.03 1009.15 1009.23 1009.35 1009.47 1009.55 1009.67 1009.71 1009.75 1009.83 1009.91 1010.03 1010.19 1010.31
1012.15 1012.03 1011.83 1011.67 1011.55 1011.43 1011.23 1010.99 1010.75 1010.55 1010.35 1010.11 1009.95 1009.71 1009.51 1009.31 1009.15 1009.03 1008.95 1008.75 1008.59 1008.43 1008.35 1008.27 1008.23 1008.11 1007.99 1007.99 1007.99 1007.99 1007.91 1007.83 1007.79 1007.75 1007.75 1007.71 1007.71 1007.71 1007.71 1007.67 1007.67 1007.71 1007.71 1007.71 1007.71 1007.71 1007.75 1007.79 1007.83 1007.91 1008.11 1008.39 1008.47 1008.55 1008.55 1008.63 1008.75 1008.87 1008.99 1009.07 1009.15 1009.19 1009.23 1009.27 1009.35 1009.51 1009.67 1009.79 1009.91
1011.95 1011.79 1011.63 1011.43 1011.31 1011.15 1010.91 1010.71 1010.51 1010.27 1010.03 1009.83 1009.63 1009.43 1009.19 1009.03 1008.91 1008.79 1008.63 1008.47 1008.31 1008.19 1008.11 1008.03 1007.91 1007.83 1007.75 1007.71 1007.67 1007.59 1007.55 1007.47 1007.43 1007.43 1007.43 1007.43 1007.39 1007.35 1007.31 1007.27 1007.27 1007.27 1007.27 1007.23 1007.27 1007.27 1007.27 1007.35 1007.39 1007.43 1007.55 1007.71 1007.99 1008.11 1008.19 1008.27 1008.39 1008.47 1008.59 1008.71 1008.71 1008.75 1008.79 1008.83 1008.95 1009.07 1009.23 1009.39 1009.51
1011.71 1011.55 1011.43 1011.27 1011.11 1010.83 1010.59 1010.39 1010.19 1009.99 1009.71 1009.47 1009.27 1009.11 1008.91 1008.75 1008.67 1008.51 1008.35 1008.19 1008.07 1007.99 1007.87 1007.71 1007.55 1007.47 1007.47 1007.43 1007.31 1007.23 1007.15 1007.15 1007.11 1007.07 1007.07 1007.07 1007.07 1006.99 1006.99 1006.91 1006.87 1006.83 1006.79 1006.75 1006.79 1006.83 1006.87 1006.87 1006.95 1006.99 1007.03 1007.11 1007.39 1007.59 1007.75 1007.83 1007.95 1008.07 1008.11 1008.19 1008.27 1008.31 1008.39 1008.43 1008.55 1008.67 1008.83 1008.95 1009.11
1011.47 1011.31 1011.15 1010.99 1010.75 1010.55 1010.27 1010.07 1009.83 1009.59 1009.39 1009.15 1008.99 1008.83 1008.67 1008.51 1008.35 1008.23 1008.11 1007.99 1007.83 1007.71 1007.55 1007.35 1007.27 1007.23 1007.15 1007.03 1006.95 1006.87 1006.83 1006.79 1006.75 1006.75 1006.79 1006.79 1006.71 1006.63 1006.55 1006.51 1006.47 1006.43 1006.39 1006.39 1006.43 1006.43 1006.43 1006.47 1006.51 1006.55 1006.63 1006.67 1006.79 1006.99 1007.15 1007.31 1007.43 1007.55 1007.63 1007.71 1007.75 1007.83 1007.91 1007.99 1008.11 1008.27 1008.39 1008.55 1008.67
1011.19 1011.03 1010.87 1010.71 1010.47 1010.23 1009.91 1009.67 1009.43 1009.27 1009.15 1008.95 1008.75 1008.59 1008.43 1008.27 1008.11 1007.95 1007.79 1007.63 1007.47 1007.27 1007.11 1007.07 1007.03 1006.95 1006.83 1006.67 1006.63 1006.55 1006.47 1006.43 1006.39 1006.43 1006.43 1006.43 1006.31 1006.19 1006.11 1006.11 1006.11 1006.11 1006.07 1006.07 1006.03 1006.03 1006.03 1006.03 1006.11 1006.15 1006.23 1006.27 1006.35 1006.43 1006.59 1006.75 1006.95 1007.11 1007.15 1007.15 1007.23 1007.35 1007.43 1007.55 1007.71 1007.83 1007.99 1008.11 1008.27
1010.95 1010.75 1010.55 1010.39 1010.11 1009.83 1009.55 1009.31 1009.15 1008.99 1008.83 1008.71 1008.51 1008.35 1008.15 1007.99 1007.83 1007.63 1007.47 1007.31 1007.15 1006.99 1006.91 1006.83 1006.75 1006.63 1006.47 1006.35 1006.27 1006.23 1006.15 1006.11 1006.07 1006.03 1005.99 1005.99 1005.91 1005.83 1005.79 1005.75 1005.79 1005.79 1005.79 1005.75 1005.71 1005.71 1005.71 1005.71 1005.71 1005.71 1005.75 1005.83 1005.95 1006.03 1006.11 1006.27 1006.43 1006.55 1006.71 1006.75 1006.79 1006.87 1006.99 1007.15 1007.27 1007.43 1007.55 1007.71 1007.87
1010.63 1010.43 1010.27 1010.07 1009.79 1009.47 1009.23 1009.03 1008.83 1008.71 1008.55 1008.43 1008.27 1008.07 1007.87 1007.71 1007.51 1007.31 1007.15 1007.07 1006.95 1006.83 1006.71 1006.55 1006.43 1006.31 1006.15 1006.03 1005.91 1005.83 1005.71 1005.71 1005.67 1005.59 1005.55 1005.51 1005.51 1005.43 1005.43 1005.43 1005.43 1005.47 1005.43 1005.43 1005.43 1005.39 1005.35 1005.35 1005.35 1005.35 1005.39 1005.43 1005.55 1005.67 1005.75 1005.83 1005.99 1006.11 1006.23 1006.31 1006.39 1006.51 1006.59 1006.71 1006.83 1006.95 1007.15 1007.27 1007.47
1010.31 1010.11 1009.95 1009.71 1009.43 1009.15 1008.91 1008.71 1008.55 1008.43 1008.27 1008.11 1007.91 1007.75 1007.63 1007.43 1007.27 1007.11 1006.91 1006.75 1006.63 1006.51 1006.35 1006.23 1006.07 1005.95 1005.79 1005.67 1005.55 1005.43 1005.31 1005.23 1005.19 1005.15 1005.15 1005.15 1005.11 1005.11 1005.11 1005.11 1005.07 1005.07 1005.07 1005.07 1005.03 1004.99 1004.99 1004.99 1004.99 1005.03 1005.03 1005.07 1005.19 1005.27 1005.39 1005.43 1005.51 1005.63 1005.75 1005.83 1005.99 1006.11 1006.23 1006.31 1006.43 1006.55 1006.71 1006.91 1007.11
1010.11 1009.91 1009.67 1009.39 1009.11 1008.83 1008.63 1008.43 1008.27 1008.11 1007.99 1007.83 1007.63 1007.43 1007.27 1007.19 1007.07 1006.87 1006.67 1006.43 1006.27 1006.15 1005.99 1005.83 1005.71 1005.55 1005.47 1005.31 1005.27 1005.15 1005.03 1004.87 1004.79 1004.75 1004.71 1004.71 1004.75 1004.75 1004.71 1004.67 1004.63 1004.63 1004.63 1004.67 1004.67 1004.67 1004.67 1004.67 1004.67 1004.71 1004.71 1004.79 1004.91 1004.99 1005.03 1005.11 1005.15 1005.19 1005.27 1005.43 1005.55 1005.67 1005.83 1005.99 1006.11 1006.27 1006.43 1006.55 1006.71
1009.87 1009.67 1009.43 1009.11 1008.79 1008.55 1008.31 1008.15 1007.99 1007.83 1007.71 1007.55 1007.35 1007.15 1006.99 1006.83 1006.71 1006.55 1006.35 1006.15 1006.03 1005.87 1005.71 1005.55 1005.43 1005.31 1005.19 1005.07 1004.91 1004.83 1004.71 1004.59 1004.47 1004.39 1004.31 1004.35 1004.39 1004.39 1004.31 1004.27 1004.23 1004.23 1004.27 1004.31 1004.27 1004.27 1004.31 1004.31 1004.31 1004.35 1004.43 1004.51 1004.59 1004.67 1004.71 1004.79 1004.79 1004.83 1004.87 1005.03 1005.11 1005.23 1005.39 1005.59 1005.79 1005.99 1006.11 1006.19 1006.31
1009.55 1009.31 1009.11 1008.79 1008.51 1008.27 1008.03 1007.83 1007.71 1007.59 1007.43 1007.23 1007.03 1006.87 1006.71 1006.55 1006.39 1006.19 1006.07 1005.99 1005.83 1005.67 1005.43 1005.31 1005.19 1005.07 1004.91 1004.75 1004.55 1004.43 1004.27 1004.19 1004.11 1004.03 1003.99 1003.95 1003.99 1003.99 1003.95 1003.87 1003.83 1003.87 1003.95 1003.99 1003.95 1003.95 1003.95 1003.99 1003.99 1004.07 1004.11 1004.19 1004.27 1004.31 1004.43 1004.47 1004.47 1004.47 1004.55 1004.59 1004.71 1004.83 1004.99 1005.23 1005.43 1005.59 1005.75 1005.83 1005.91
1009.11 1008.91 1008.71 1008.43 1008.19 1007.95 1007.75 1007.63 1007.47 1007.31 1007.15 1006.95 1006.79 1006.59 1006.43 1006.27 1006.11 1005.99 1005.83 1005.71 1005.59 1005.39 1005.19 1005.03 1004.91 1004.75 1004.55 1004.43 1004.23 1004.07 1003.95 1003.83 1003.83 1003.75 1003.67 1003.59 1003.59 1003.59 1003.55 1003.51 1003.47 1003.51 1003.59 1003.63 1003.63 1003.59 1003.63 1003.63 1003.67 1003.71 1003.79 1003.91 1003.95 1003.99 1004.11 1004.11 1004.15 1004.15 1004.19 1004.23 1004.31 1004.43 1004.59 1004.83 1004.99 1005.19 1005.31 1005.43 1005.47
1008.67 1008.47 1008.31 1008.11 1007.95 1007.71 1007.55 1007.39 1007.23 1007.07 1006.87 1006.71 1006.51 1006.31 1006.15 1006.03 1005.87 1005.71 1005.55 1005.39 1005.27 1005.15 1004.95 1004.75 1004.59 1004.43 1004.27 1004.11 1003.99 1003.79 1003.63 1003.55 1003.51 1003.43 1003.39 1003.27 1003.23 1003.19 1003.19 1003.15 1003.15 1003.15 1003.23 1003.27 1003.27 1003.27 1003.27 1003.35 1003.39 1003.43 1003.47 1003.55 1003.67 1003.71 1003.79 1003.83 1003.83 1003.83 1003.87 1003.95 1003.99 1004.07 1004.23 1004.43 1004.55 1004.71 1004.79 1004.91 1004.99
1008.27 1008.15 1007.99 1007.83 1007.71 1007.51 1007.35 1007.15 1006.99 1006.83 1006.63 1006.47 1006.31 1006.11 1005.95 1005.79 1005.59 1005.39 1005.19 1005.07 1004.99 1004.83 1004.71 1004.51 1004.27 1004.11 1003.99 1003.87 1003.71 1003.55 1003.39 1003.23 1003.19 1003.15 1003.07 1002.99 1002.83 1002.79 1002.79 1002.79 1002.75 1002.75 1002.79 1002.87 1002.91 1002.95 1002.99 1002.99 1003.03 1003.11 1003.19 1003.27 1003.35 1003.43 1003.51 1003.55 1003.55 1003.55 1003.55 1003.59 1003.71 1003.79 1003.87 1003.99 1004.11 1004.27 1004.35 1004.43 1004.55
1008.03 1007.91 1007.75 1007.63 1007.47 1007.31 1007.15 1006.95 1006.75 1006.55 1006.43 1006.27 1006.11 1005.91 1005.71 1005.51 1005.31 1005.15 1004.99 1004.83 1004.71 1004.59 1004.43 1004.23 1004.03 1003.87 1003.75 1003.59 1003.43 1003.27 1003.11 1002.95 1002.83 1002.79 1002.71 1002.67 1002.55 1002.51 1002.43 1002.43 1002.39 1002.39 1002.43 1002.51 1002.55 1002.63 1002.63 1002.67 1002.71 1002.79 1002.87 1002.99 1003.07 1003.15 1003.19 1003.27 1003.27 1003.23 1003.23 1003.27 1003.31 1003.43 1003.55 1003.59 1003.71 1003.83 1003.91 1003.99 1004.11
Wind_Speed
8 8 7 7 7 6 6 7 7 7 7 7 7 7 6 6 7 7 7 6 7 7 7 6 6 6 6 8 10 11 12 13 13 14 15 16 16 15 15 14 14 13 13 13 13 13 12 12 11 10 9 9 10 10 10 10 11 12 13 13 12 12 13 14 14 15 15 15 13
9 8 8 8 8 7 6 6 7 7 7 6 6 6 6 6 7 7 7 7 7 7 6 6 6 6 7 9 10 11 12 13 14 15 15 16 16 15 15 14 14 14 14 14 13 12 12 12 11 10 9 9 9 10 11 10 10 11 13 15 12 11 11 13 14 15 15 15 13
8 8 8 8 8 7 6 6 7 8 8 8 6 6 6 6 6 7 7 7 7 6 6 6 6 7 8 9 10 11 12 13 14 14 15 15 15 15 15 14 14 14 14 14 13 13 12 12 11 11 10 9 10 11 11 11 11 11 13 14 11 10 10 11 12 12 12 12 13
8 7 7 8 9 9 9 8 8 9 9 7 6 6 6 6 6 7 7 7 6 7 7 7 6 7 8 9 10 11 12 13 14 14 15 15 15 15 15 14 14 14 14 14 14 14 13 13 11 10 11 11 12 12 11 10 11 11 11 11 10 10 10 10 10 10 10 11 12
7 7 8 8 10 10 10 9 9 9 8 6 6 6 6 6 6 6 6 7 7 7 8 8 7 7 7 8 10 11 12 13 14 14 14 15 15 15 15 15 15 15 14 14 14 14 14 14 11 10 11 12 11 10 10 10 11 10 10 9 9 9 10 9 9 9 9 10 10
6 7 8 8 9 9 9 8 9 9 8 6 6 7 7 6 6 7 8 9 9 9 9 8 8 8 8 8 10 11 12 12 13 14 14 15 14 15 15 16 16 15 15 14 15 15 14 14 11 10 10 10 10 11 11 11 11 11 10 9 10 9 9 9 8 8 9 11 11
6 6 7 8 8 8 8 7 8 7 7 6 7 9 10 9 9 9 10 10 9 8 7 7 8 9 9 9 9 10 11 12 12 13 14 14 14 14 15 15 16 16 16 15 15 15 14 13 11 10 11 11 10 10 11 11 11 11 11 11 10 9 9 10 8 8 10 13 14
4 5 6 6 7 7 7 7 7 6 6 6 8 10 11 11 11 11 10 9 8 8 7 7 8 9 10 9 10 11 11 12 12 13 14 14 14 15 15 15 16 16 16 16 15 15 14 13 11 11 11 10 9 10 11 12 12 13 13 13 11 9 9 8 8 9 11 13 15
4 4 5 5 5 6 6 7 6 6 7 8 9 10 11 11 11 11 10 9 9 8 8 8 9 10 10 10 11 11 11 12 12 13 13 14 15 15 15 15 15 16 16 15 15 15 15 12 12 12 11 10 10 10 10 12 13 14 14 13 11 10 10 10 10 11 12 13 14
4 5 5 5 5 6 6 5 6 6 7 8 10 10 10 11 10 10 9 9 8 8 8 9 9 10 10 11 12 12 11 11 12 13 13 14 15 15 15 14 15 16 16 15 15 15 15 13 13 13 13 12 12 12 11 12 14 15 15 12 12 12 12 11 12 12 13 13 14
5 5 5 5 6 6 5 4 5 5 6 8 9 10 10 10 10 9 8 7 8 9 10 10 10 10 11 11 12 12 12 11 11 12 13 14 15 15 15 15 15 16 16 16 14 14 13 13 14 16 16 14 13 13 12 13 14 15 15 13 13 14 14 14 14 13 13 14 14
4 5 5 5 5 5 4 4 4 5 6 8 9 9 9 9 9 8 8 7 8 10 10 10 10 11 11 11 11 12 12 12 12 12 13 14 15 15 15 15 15 16 16 16 15 13 13 14 15 17 17 16 14 12 13 14 14 15 16 15 15 15 15 16 15 13 12 13 14
4 4 4 4 4 4 4 4 4 5 6 8 8 9 9 9 9 8 7 8 10 10 10 10 10 10 11 11 11 11 12 12 12 13 13 14 14 15 15 15 15 16 16 15 14 13 13 14 16 17 17 17 14 13 14 15 15 16 16 17 16 16 17 16 15 14 13 14 14
4 4 4 4 4 3 3 4 5 5 6 8 8 8 8 8 8 7 7 8 10 11 10 10 9 10 11 12 12 12 12 12 13 13 14 14 14 14 15 15 15 15 15 14 14 15 15 15 16 17 17 17 17 16 16 16 16 16 17 18 18 18 18 17 16 15 14 15 15
4 4 4 3 3 3 4 4 5 5 6 8 8 8 8 8 8 8 8 9 10 10 10 9 10 10 11 12 12 13 13 13 13 14 14 15 15 15 15 14 15 15 14 14 14 15 16 17 17 17 17 18 18 17 17 17 17 17 17 18 18 18 18 17 16 15 15 16 16
4 4 4 3 3 4 4 5 5 5 6 7 8 8 7 8 8 8 8 9 9 9 9 10 11 11 11 12 12 12 13 13 13 14 15 15 15 15 15 15 15 15 15 15 15 15 16 17 17 17 17 18 18 18 18 18 17 17 18 18 18 18 18 17 16 16 17 17 17
5 5 4 4 4 5 6 6 6 6 6 8 8 8 8 8 7 8 9 10 9 10 10 12 11 11 11 11 11 11 12 12 13 14 14 15 15 15 15 15 15 15 15 15 15 16 16 17 16 16 17 17 17 17 17 18 17 17 17 17 17 17 17 17 17 17 17 18 18
6 5 5 5 6 7 8 8 7 7 8 8 8 8 8 8 8 9 9 10 10 11 12 13 12 11 11 12 11 11 11 12 13 14 15 15 15 15 15 15 15 15 14 15 16 17 17 17 16 16 16 16 16 16 16 16 16 17 17 17 17 17 17 17 17 16 16 17 18
6 7 7 7 8 8 9 9 9 9 9 9 9 9 9 9 9 10 10 10 11 12 13 13 13 12 12 12 12 11 11 12 13 14 15 15 14 14 15 15 14 14 14 15 16 17 17 17 16 16 16 16 15 15 15 15 16 16 16 16 16 16 16 16 16 16 16 17 18
7 8 8 9 9 9 9 9 9 9 9 8 9 10 10 11 10 11 11 12 12 12 12 13 13 13 13 13 13 12 12 11 13 14 14 14 14 14 14 14 14 14 14 14 15 16 16 16 16 16 16 16 16 16 15 15 15 15 15 15 15 15 16 16 16 16 17 17 18
8 8 9 9 8 9 9 9 9 9 9 9 10 11 11 11 11 11 12 13 13 12 12 13 13 14 14 14 13 13 13 12 12 13 13 13 13 14 14 13 13 13 13 13 14 15 15 15 15 15 15 16 16 16 15 15 15 15 15 14 14 15 16 16 16 17 17 18 18
8 8 8 8 9 9 10 9 9 9 10 10 11 11 11 11 12 12 12 12 12 12 12 13 13 14 14 14 14 13 12 12 12 12 12 12 12 12 12 12 12 12 13 13 14 14 14 15 15 15 15 15 15 16 16 16 15 15 15 15 15 15 16 16 16 17 17 18 18
8 8 8 9 9 10 10 10 10 10 10 11 11 11 12 12 12 12 12 11 11 12 12 12 13 13 14 14 13 13 13 12 12 12 12 12 12 11 11 10 11 12 13 13 13 13 13 13 14 14 14 14 15 16 16 16 16 15 15 16 16 16 16 16 16 17 17 17 18
8 8 9 9 9 9 10 10 10 11 11 12 12 12 12 12 12 12 12 12 12 12 12 12 12 12 12 12 12 12 12 13 13 13 13 13 12 12 11 10 11 12 12 11 12 12 12 11 12 12 13 14 14 15 15 15 15 15 15 16 16 16 16 16 17 17 17 18 17
9 9 10 10 10 10 11 11 11 12 12 12 12 12 12 13 12 12 12 12 12 13 13 12 12 12 11 11 11 11 11 12 13 14 14 14 13 12 11 10 10 10 10 11 15 18 19 17 14 12 12 12 13 14 14 14 15 15 15 15 15 16 16 16 17 17 18 18 17
10 10 11 11 11 11 12 12 12 13 13 13 13 13 13 13 12 12 12 12 13 13 12 12 12 11 11 10 10 10 11 11 12 13 14 14 14 13 12 11 10 9 9 12 18 22 24 24 22 18 14 11 12 13 13 13 14 15 15 15 16 16 16 16 17 18 18 17 17
11 12 12 12 12 12 13 13 13 13 13 13 13 13 13 13 12 12 12 13 13 13 12 11 10 10 10 9 10 11 11 12 12 13 13 14 14 14 13 12 11 9 10 15 20 24 26 27 27 25 20 14 12 12 12 12 13 14 15 15 16 16 17 17 17 18 18 17 17
13 13 13 13 13 14 14 14 13 13 14 14 13 13 13 13 13 13 13 13 13 11 10 9 9 8 7 7 9 11 12 12 12 12 13 13 14 14 14 13 12 11 13 18 22 24 26 27 28 28 25 19 14 12 12 13 13 13 14 14 15 16 17 17 16 16 17 17 17
14 14 14 14 14 15 14 14 14 14 14 14 13 13 13 13 13 13 13 13 12 11 10 9 7 6 6 7 9 11 12 12 12 12 12 12 13 14 14 14 13 15 17 22 24 25 26 27 27 28 28 26 17 12 11 12 12 13 13 13 14 15 16 16 16 15 16 17 17
14 14 14 15 15 15 15 15 15 15 14 13 13 13 13 13 13 13 13 13 13 12 10 8 7 7 8 10 10 10 11 11 11 11 11 13 14 15 15 15 14 15 18 23 25 26 26 26 27 27 28 29 22 15 11 11 12 12 13 13 14 16 17 17 17 17 16 16 16
14 15 15 15 15 16 16 16 15 15 14 13 13 13 13 13 13 13 12 11 12 11 10 8 9 10 11 11 10 10 11 11 11 11 12 13 15 16 16 15 15 15 18 23 25 26 26 26 27 27 28 29 24 17 12 11 12 13 13 14 15 16 17 16 17 17 18 17 17
15 15 15 15 16 16 16 16 15 14 14 14 13 13 13 13 13 12 10 9 10 10 10 9 11 11 11 10 10 10 11 12 12 12 13 13 14 15 15 15 14 15 17 22 25 26 26 27 27 27 27 28 24 19 14 12 13 13 14 15 17 17 17 16 16 17 18 18 17
15 15 15 15 16 16 16 16 15 14 14 13 13 13 13 13 12 11 10 9 9 9 10 10 12 12 11 10 10 11 12 13 13 14 14 15 15 15 15 14 13 14 17 22 24 26 26 26 27 27 27 28 23 19 15 13 12 12 13 15 16 17 18 18 17 17 17 18 17
15 15 15 16 16 16 16 16 15 14 13 13 13 13 12 11 11 11 11 9 9 9 9 9 10 10 10 10 10 11 12 13 13 13 14 14 14 15 14 13 11 14 18 22 24 25 26 26 26 27 27 27 21 17 15 15 13 13 13 14 15 16 17 18 18 18 18 18 17
15 15 16 16 16 16 16 15 14 14 13 13 13 13 12 10 11 11 11 10 10 10 9 9 9 9 10 10 10 11 12 13 13 13 13 13 13 14 15 14 13 15 19 23 24 25 25 25 26 26 26 24 18 14 13 15 15 14 14 15 16 17 17 17 17 17 17 17 17
15 16 16 17 17 16 16 15 14 13 13 13 13 13 12 11 11 10 10 10 10 10 9 10 9 9 9 11 11 11 12 13 14 14 14 13 13 13 14 15 14 16 20 23 24 24 25 25 25 25 24 20 14 11 11 12 13 14 15 15 16 16 17 17 16 16 16 16 17
15 16 16 17 17 16 16 15 14 13 13 13 13 12 12 12 11 10 9 8 9 9 9 9 10 10 10 10 11 12 12 13 13 14 14 13 13 13 14 15 14 16 18 22 23 24 25 25 25 24 22 17 12 11 10 10 11 12 13 14 14 15 15 15 15 16 16 17 18
16 16 16 16 16 16 15 14 13 13 14 14 12 11 10 10 9 9 9 8 9 9 9 9 10 10 11 11 12 13 13 12 13 13 14 14 13 14 14 14 14 14 16 19 22 24 24 24 25 24 21 15 12 11 10 9 10 11 12 12 12 13 13 12 12 14 15 18 20
16 15 15 15 15 15 14 13 13 14 14 14 13 12 11 10 8 8 8 8 8 9 9 9 10 11 12 12 12 12 12 12 12 13 13 14 14 14 15 15 14 13 15 18 21 23 24 24 24 24 22 17 13 10 9 9 10 11 11 11 11 11 11 11 11 12 14 17 23
15 14 14 14 13 13 13 13 14 14 13 13 13 13 12 10 9 9 9 8 8 8 9 10 11 12 12 13 13 13 13 12 12 12 13 14 14 16 16 16 14 13 14 17 20 22 23 23 24 24 22 16 12 10 9 9 10 11 11 11 10 10 9 10 10 11 12 15 20
13 13 13 13 12 12 13 14 14 14 13 13 13 12 11 10 10 9 8 8 8 9 9 10 12 13 13 13 13 13 13 13 12 12 12 13 14 15 16 15 14 13 13 15 19 21 22 23 23 23 22 16 12 10 9 9 10 11 12 12 11 10 9 9 9 10 11 12 14
Wind_Direction
231 231 230 230 231 233 235 239 240 240 240 239 240 238 236 234 237 239 237 232 234 235 235 232 229 226 222 214 211 214 218 221 222 223 224 224 225 224 223 222 220 219 218 219 218 217 216 214 215 218 221 222 223 223 223 221 220 220 220 220 221 220 219 219 221 221 220 220 221
236 235 234 235 236 237 238 241 242 242 241 239 238 238 237 235 238 240 240 235 234 234 235 236 229 224 219 214 211 212 215 219 220 222 224 226 226 224 223 222 221 219 218 218 216 216 216 214 215 218 221 223 223 224 224 220 218 219 221 221 221 219 218 220 221 220 220 221 221
240 240 239 238 239 239 240 242 243 243 242 242 239 238 237 237 239 242 242 239 237 235 235 237 231 223 217 214 212 212 214 217 219 221 223 226 226 225 223 222 221 220 219 218 216 216 216 214 214 217 220 222 222 223 224 220 217 218 221 221 220 219 218 220 220 219 218 220 220
243 243 242 241 239 239 239 242 244 244 243 243 240 239 239 240 241 243 244 244 241 237 234 233 231 224 217 214 213 214 215 216 217 220 222 225 225 224 223 222 221 220 219 217 217 217 217 214 216 218 221 222 222 223 223 219 216 217 220 220 219 219 219 220 218 216 216 219 219
247 243 241 241 240 240 241 243 245 246 246 244 242 242 242 242 243 244 246 246 242 238 234 228 228 225 220 214 213 214 215 217 218 220 222 224 225 224 223 221 221 220 219 217 217 217 217 215 217 221 223 223 222 222 221 217 215 217 219 220 218 218 218 219 217 215 215 218 218
250 248 246 245 243 244 245 246 246 246 247 245 243 244 244 243 242 241 242 243 243 240 235 229 229 228 223 215 214 214 216 218 219 220 222 224 224 224 223 223 222 221 220 218 217 217 216 215 219 223 224 223 225 224 221 215 216 217 219 220 219 218 218 218 216 214 215 217 217
253 254 254 253 249 249 250 250 249 249 248 247 244 244 244 245 242 241 241 243 245 243 239 234 232 229 226 218 217 217 218 219 220 221 222 224 224 224 223 224 223 222 222 220 218 217 216 215 219 224 226 225 227 224 219 214 215 217 218 220 219 217 216 217 215 214 214 216 215
266 266 264 263 259 257 255 255 255 254 252 249 246 245 245 245 244 244 244 247 248 246 242 239 234 230 226 221 220 219 219 220 221 222 222 224 225 225 224 224 224 224 223 221 219 217 216 215 220 224 226 225 226 223 218 212 214 216 218 219 219 217 215 215 213 212 213 214 214
292 285 279 277 271 265 261 259 257 255 253 252 249 247 246 246 245 245 246 247 247 245 242 241 236 232 228 225 224 223 221 220 221 222 223 224 225 225 225 225 224 224 224 222 220 218 217 217 221 224 225 224 225 223 217 210 213 215 218 219 219 218 216 214 212 211 212 213 213
300 297 294 291 282 273 267 265 260 255 252 254 254 252 251 250 247 245 244 245 247 246 244 242 237 233 230 229 228 226 224 222 222 223 224 224 224 225 225 224 223 224 224 222 220 218 217 218 222 224 224 223 223 222 217 210 212 215 217 219 218 217 217 215 212 211 212 212 213
296 294 292 289 284 280 276 274 267 259 254 254 256 256 255 253 250 246 244 245 247 246 244 241 236 233 232 231 231 229 228 225 224 224 224 225 225 225 224 224 222 222 222 221 218 217 217 219 223 225 225 223 221 220 217 212 213 215 218 219 218 217 217 216 213 211 212 213 213
289 287 284 282 281 281 280 276 271 266 261 258 259 258 257 254 251 249 248 247 246 246 246 242 236 234 233 234 232 231 230 228 226 225 225 226 227 226 225 224 223 222 222 221 218 216 217 219 222 224 225 224 221 219 216 213 213 215 218 220 218 217 217 217 213 211 211 211 212
281 282 282 282 282 282 280 276 273 270 267 265 264 263 261 259 255 252 249 248 247 249 249 245 238 235 234 235 234 232 230 229 227 227 227 228 228 227 227 226 224 224 223 222 219 217 218 220 221 223 224 224 223 220 217 213 213 215 217 219 218 218 218 217 213 211 210 210 211
278 278 279 281 282 281 278 276 274 272 271 269 268 267 266 265 261 256 251 249 249 251 252 250 244 239 236 235 234 232 230 229 228 228 229 230 229 228 227 227 225 224 223 223 220 219 219 220 221 221 222 224 224 223 220 215 215 215 216 217 218 218 218 217 213 210 209 210 211
280 278 276 279 280 278 275 273 273 272 272 271 269 268 268 269 265 261 256 252 252 253 253 252 250 245 241 236 235 233 231 231 230 230 231 231 231 229 227 227 226 224 223 222 221 221 221 222 221 221 221 223 224 223 222 219 218 217 217 217 218 218 218 216 213 210 209 210 211
284 281 279 279 279 277 275 273 272 272 272 271 271 270 270 270 268 265 260 257 257 256 255 252 251 249 245 240 236 234 233 233 232 232 232 233 232 230 228 227 226 224 222 222 222 222 222 222 222 221 221 222 223 223 223 222 221 220 219 219 219 219 218 217 213 212 211 210 211
287 285 282 281 280 278 277 275 274 274 273 273 274 273 272 271 271 268 264 260 260 259 256 253 251 250 248 245 240 236 235 235 234 233 233 233 232 230 229 227 226 224 222 221 221 223 223 223 223 223 222 223 223 223 223 223 222 222 221 220 220 219 219 217 214 213 212 212 212
289 287 286 284 281 279 277 276 276 275 274 274 275 275 273 272 271 270 268 264 262 260 258 257 254 251 249 247 243 239 236 235 235 235 234 233 232 231 230 229 227 224 222 221 222 223 223 223 223 223 224 224 224 224 224 224 224 224 223 222 221 220 219 217 215 213 213 213 213
287 287 287 285 282 280 278 277 276 275 275 274 275 275 275 273 271 271 270 268 263 260 258 259 258 254 251 247 245 242 239 237 236 236 236 235 234 232 231 230 228 225 223 222 223 223 223 223 222 222 223 225 225 225 225 225 225 225 224 223 222 220 219 218 216 215 214 213 214
283 284 284 282 281 280 279 278 276 275 275 276 276 276 276 275 273 272 271 270 266 263 260 259 259 257 254 250 247 244 241 239 238 238 238 237 236 234 233 231 229 226 224 223 223 224 224 223 222 222 223 224 225 225 225 225 225 226 225 224 223 221 220 218 217 216 215 215 215
279 280 280 280 280 279 278 277 276 276 276 277 277 276 276 276 274 272 270 269 269 267 264 261 259 257 256 253 249 246 243 242 240 239 239 239 237 236 234 232 230 228 226 224 224 224 224 224 223 222 222 223 223 224 224 224 224 225 225 225 224 222 221 219 218 217 217 216 216
278 278 279 279 279 278 277 277 278 278 278 277 276 276 275 275 274 272 270 270 270 269 266 262 260 257 255 253 250 248 246 244 242 240 240 239 238 237 235 232 230 229 228 227 226 225 225 224 223 222 222 222 223 223 223 223 224 224 225 225 225 223 222 220 219 218 218 218 217
279 280 281 281 279 279 279 280 280 280 279 278 277 277 276 275 274 273 273 272 271 269 266 264 261 258 255 252 250 248 248 247 245 243 241 240 239 238 235 232 230 230 230 229 227 225 224 225 224 223 222 222 224 224 224 223 223 224 224 225 225 224 223 221 220 220 220 219 219
282 284 284 284 283 282 282 282 282 281 280 278 277 276 276 276 276 276 276 274 271 269 267 265 263 260 257 254 250 248 247 247 247 246 245 242 240 238 236 232 231 231 231 231 227 223 221 221 223 223 223 223 224 225 225 224 223 223 224 224 224 224 223 222 221 220 220 220 220
286 287 287 287 286 285 284 283 281 280 278 277 277 276 277 277 277 277 276 275 272 269 267 266 265 263 261 258 253 248 245 244 245 246 246 245 242 239 236 233 232 231 232 232 231 229 227 224 222 221 221 223 225 226 226 225 224 223 223 223 223 224 224 223 222 221 220 220 219
291 291 290 288 287 286 284 282 279 278 277 276 277 277 276 276 276 276 275 274 272 270 268 266 265 264 261 258 254 250 246 243 243 243 244 245 244 241 238 236 234 232 232 232 234 234 233 232 229 226 223 221 223 224 226 226 224 223 223 224 223 223 223 223 222 221 221 220 219
294 293 292 290 289 286 283 280 279 277 276 275 275 275 275 276 277 277 276 274 273 272 270 268 265 263 262 258 253 249 246 244 242 242 242 242 242 242 240 239 237 234 232 233 235 236 237 237 236 233 228 222 220 221 222 223 223 222 223 223 224 223 223 223 223 222 221 221 220
293 293 292 292 289 286 282 280 279 277 275 274 273 274 275 277 278 278 277 276 275 275 273 270 265 262 259 257 251 247 245 244 243 242 242 241 241 241 241 241 239 236 234 234 237 238 240 240 240 239 236 229 223 218 219 221 222 221 221 223 224 225 225 225 224 223 222 222 221
291 292 292 291 287 285 283 281 277 275 273 273 274 275 277 279 279 279 278 278 277 276 274 271 268 263 257 253 250 248 246 244 243 243 243 242 242 241 241 242 241 241 240 239 240 241 241 242 243 243 241 237 230 220 215 218 219 221 222 224 224 225 226 226 226 225 224 223 222
290 290 290 288 285 283 281 278 276 274 274 275 276 278 279 281 281 280 280 279 277 274 271 270 269 265 259 254 252 250 248 245 243 242 241 242 242 242 242 241 241 241 242 242 243 243 244 244 244 244 244 242 238 230 218 213 217 220 223 225 224 225 225 226 226 226 225 224 223
288 287 286 285 283 281 279 277 275 275 275 276 278 279 280 281 280 280 279 278 276 275 274 272 269 265 260 256 254 251 250 248 245 241 240 240 242 243 243 243 241 242 243 243 245 246 246 246 245 245 245 244 242 237 226 214 215 218 221 223 224 224 224 225 225 225 225 224 223
284 284 283 282 280 279 277 277 276 276 276 276 277 277 278 278 278 278 278 277 278 279 279 277 272 268 265 261 256 253 250 249 246 243 240 239 241 243 244 244 242 242 243 244 245 246 247 247 247 247 246 245 244 241 234 222 218 218 220 223 223 223 222 222 223 223 223 223 222
281 280 280 279 278 278 277 277 276 276 275 275 275 275 276 277 278 279 279 279 279 279 278 277 274 272 269 266 261 257 252 249 246 244 243 242 242 243 244 245 244 243 243 244 246 247 248 248 248 248 247 246 245 243 238 231 224 220 220 222 223 223 222 222 222 222 222 221 221
279 279 279 278 277 277 277 277 276 276 275 275 275 275 276 278 281 282 282 280 279 278 276 275 273 271 269 266 264 261 257 254 249 246 244 242 242 243 243 243 243 243 243 245 246 247 248 249 249 249 249 247 246 244 240 237 232 227 223 222 223 223 222 222 222 222 221 220 220
279 279 279 278 277 277 277 277 277 276 275 275 276 278 279 280 280 280 281 281 281 280 279 277 274 273 271 268 264 261 260 259 255 251 247 244 242 242 243 243 243 243 243 245 247 248 248 249 250 250 249 248 247 244 241 239 237 233 227 224 223 223 222 222 222 222 221 220 220
278 277 277 277 278 278 278 277 277 276 276 277 280 283 284 284 282 280 280 282 282 281 280 279 278 277 275 272 267 262 258 257 256 254 251 247 244 243 243 243 243 243 244 245 247 248 249 250 250 250 249 248 246 242 240 240 239 236 232 227 225 223 222 221 221 221 221 221 221
275 275 275 276 277 277 277 277 277 278 280 282 285 287 288 287 285 283 282 282 282 281 280 280 279 278 276 273 269 265 260 256 256 255 254 251 247 245 245 245 244 243 243 244 247 248 249 250 250 250 249 248 244 241 239 238 239 238 235 232 228 225 222 220 220 221 221 221 221
274 274 274 275 276 277 278 278 280 283 285 288 289 289 289 287 285 283 282 280 280 280 280 281 280 279 276 274 272 268 264 259 257 257 256 254 250 247 246 247 245 243 242 243 245 247 249 250 250 250 249 247 243 240 238 238 238 237 237 235 232 227 223 220 220 220 221 221 221
276 276 276 276 277 278 279 281 284 287 290 292 292 291 290 288 285 282 280 278 277 278 281 283 282 281 280 279 277 274 269 263 259 257 256 256 253 250 249 248 247 244 241 241 244 246 247 248 249 249 249 247 244 240 238 237 237 237 237 237 236 231 225 220 219 220 221 221 222
280 280 279 278 278 280 283 286 289 291 292 293 293 291 290 287 285 283 282 280 279 280 282 284 284 284 283 283 281 278 274 269 263 258 256 256 255 254 252 251 249 245 242 241 242 244 246 247 248 248 248 247 244 240 239 238 238 238 237 236 236 233 228 222 220 220 221 222 223
284 284 283 282 283 286 289 292 293 293 294 293 291 290 288 287 286 285 285 285 284 285 286 287 287 286 285 285 283 281 278 275 269 263 258 257 256 256 254 253 250 246 242 240 241 243 245 246 247 247 247 246 243 240 238 238 239 239 238 236 235 233 231 225 222 221 221 220 222